�������l�o���
Date,Time,MP-1(��Sv/h),MP-2(��Sv/h),MP-3(��Sv/h),MP-4(��Sv/h),MP-5(��Sv/h),MP-6(��Sv/h),MP-7(��Sv/h),MP-8(��Sv/h),����,����(m/s),���J
2023/03/14,00:00,0.556,0.808,0.490,1.026,0.712,0.317,0.578,0.550,�k,6.6,��
2023/03/14,00:10,0.555,0.807,0.489,1.026,0.711,0.318,0.578,0.549,�k,6.0,��
2023/03/14,00:20,0.555,0.805,0.489,1.025,0.712,0.317,0.577,0.549,�k,6.3,��
2023/03/14,00:30,0.556,0.807,0.488,1.026,0.711,0.319,0.579,0.551,�k�k��,6.8,��
2023/03/14,00:40,0.556,0.806,0.489,1.027,0.711,0.320,0.578,0.550,�k,7.5,�L
2023/03/14,00:50,0.556,0.806,0.488,1.025,0.711,0.318,0.579,0.550,�k,8.2,��
2023/03/14,01:00,0.553,0.807,0.491,1.027,0.710,0.318,0.577,0.549,�k,7.0,��
2023/03/14,01:10,0.556,0.808,0.488,1.026,0.712,0.318,0.579,0.549,�k,6.7,��
2023/03/14,01:20,0.557,0.808,0.490,1.027,0.710,0.319,0.578,0.550,�k,6.8,��
2023/03/14,01:30,0.557,0.808,0.489,1.026,0.713,0.317,0.579,0.550,�k�k��,6.8,��
2023/03/14,01:40,0.554,0.807,0.489,1.027,0.712,0.319,0.579,0.549,�k�k��,7.3,��
2023/03/14,01:50,0.558,0.807,0.489,1.028,0.713,0.318,0.579,0.550,�k�k��,6.4,��
2023/03/14,02:00,0.556,0.806,0.490,1.025,0.710,0.318,0.579,0.550,�k�k��,7.1,��
2023/03/14,02:10,0.557,0.807,0.490,1.028,0.712,0.318,0.579,0.549,�k�k��,6.4,�L
2023/03/14,02:20,0.556,0.807,0.489,1.026,0.710,0.318,0.580,0.549,�k,7.0,�L
2023/03/14,02:30,0.555,0.808,0.490,1.029,0.712,0.317,0.579,0.550,�k,7.1,��
2023/03/14,02:40,0.558,0.807,0.490,1.027,0.713,0.319,0.579,0.550,�k,6.5,��
2023/03/14,02:50,0.557,0.808,0.490,1.028,0.711,0.319,0.580,0.550,�k�k��,6.6,��
2023/03/14,03:00,0.556,0.808,0.489,1.027,0.711,0.318,0.580,0.549,�k�k��,6.8,��
2023/03/14,03:10,0.556,0.807,0.490,1.027,0.711,0.318,0.578,0.549,�k�k��,6.5,��
2023/03/14,03:20,0.557,0.807,0.489,1.030,0.711,0.318,0.579,0.550,�k�k��,5.9,��
2023/03/14,03:30,0.556,0.807,0.490,1.028,0.710,0.319,0.580,0.550,�k�k��,6.4,��
2023/03/14,03:40,0.557,0.810,0.490,1.028,0.711,0.318,0.580,0.550,�k�k��,7.2,��
2023/03/14,03:50,0.553,0.807,0.490,1.026,0.712,0.317,0.578,0.550,�k�k��,6.7,�L
2023/03/14,04:00,0.557,0.808,0.488,1.027,0.712,0.318,0.579,0.552,�k,6.3,��
2023/03/14,04:10,0.555,0.807,0.489,1.027,0.712,0.318,0.580,0.550,�k�k��,6.4,��
2023/03/14,04:20,0.556,0.807,0.487,1.027,0.711,0.317,0.581,0.550,�k�k��,5.9,��
2023/03/14,04:30,0.555,0.806,0.488,1.028,0.714,0.318,0.581,0.549,�k�k��,6.3,��
2023/03/14,04:40,0.556,0.807,0.491,1.026,0.712,0.317,0.579,0.550,�k�k��,5.1,��
2023/03/14,04:50,0.555,0.806,0.489,1.027,0.712,0.318,0.580,0.548,�k�k��,4.8,��
2023/03/14,05:00,0.557,0.807,0.490,1.031,0.712,0.317,0.580,0.550,�k�k��,5.3,��
2023/03/14,05:10,0.557,0.808,0.491,1.028,0.712,0.318,0.580,0.550,�k�k��,5.1,��
2023/03/14,05:20,0.556,0.806,0.490,1.029,0.714,0.319,0.581,0.551,�k�k��,4.9,��
2023/03/14,05:30,0.556,0.808,0.490,1.029,0.712,0.317,0.580,0.549,�k�k��,4.3,��
2023/03/14,05:40,0.557,0.809,0.490,1.030,0.712,0.317,0.579,0.549,�k�k��,4.7,��
2023/03/14,05:50,0.555,0.807,0.490,1.027,0.713,0.316,0.580,0.551,�k�k��,4.9,��
2023/03/14,06:00,0.557,0.808,0.489,1.028,0.712,0.318,0.580,0.549,�k�k��,4.9,��
2023/03/14,06:10,0.556,0.807,0.490,1.027,0.713,0.318,0.580,0.551,�k�k��,5.0,��
2023/03/14,06:20,0.556,0.807,0.488,1.029,0.712,0.318,0.581,0.550,�k�k��,5.7,��
2023/03/14,06:30,0.554,0.809,0.490,1.025,0.712,0.317,0.580,0.549,�k�k��,5.1,��
2023/03/14,06:40,0.556,0.808,0.489,1.027,0.712,0.316,0.580,0.550,�k�k��,5.5,��
2023/03/14,06:50,0.556,0.808,0.490,1.028,0.713,0.318,0.579,0.549,�k�k��,4.5,��
2023/03/14,07:00,0.556,0.808,0.489,1.028,0.713,0.319,0.579,0.550,�k�k��,4.3,��
2023/03/14,07:10,0.556,0.808,0.489,1.029,0.713,0.318,0.580,0.551,�k�k��,4.4,��
2023/03/14,07:20,0.556,0.809,0.489,1.027,0.713,0.317,0.582,0.549,�k�k��,5.4,��
2023/03/14,07:30,0.557,0.807,0.490,1.031,0.712,0.318,0.581,0.549,�k�k��,4.8,��
2023/03/14,07:40,0.556,0.811,0.491,1.028,0.712,0.318,0.580,0.550,�k�k��,5.1,��
2023/03/14,07:50,0.557,0.808,0.489,1.028,0.712,0.319,0.578,0.550,�k�k��,4.5,��
2023/03/14,08:00,0.555,0.808,0.490,1.029,0.714,0.318,0.581,0.548,�k��,3.3,��
2023/03/14,08:10,0.558,0.809,0.490,1.028,0.713,0.316,0.580,0.550,�k�k��,3.7,��
2023/03/14,08:20,0.557,0.808,0.489,1.028,0.712,0.317,0.579,0.551,�k,4.9,��
2023/03/14,08:30,0.559,0.809,0.490,1.029,0.711,0.318,0.580,0.552,�k,4.5,��
2023/03/14,08:40,0.555,0.807,0.491,1.031,0.715,0.318,0.578,0.551,�k,4.9,��
2023/03/14,08:50,0.557,0.809,0.490,1.031,0.713,0.318,0.580,0.548,�k,5.2,��
2023/03/14,09:00,0.557,0.808,0.490,1.028,0.714,0.318,0.579,0.549,�k,6.2,��
2023/03/14,09:10,0.557,0.810,0.491,1.031,0.713,0.317,0.579,0.550,�k,6.1,��
2023/03/14,09:20,0.557,0.811,0.490,1.027,0.713,0.318,0.579,0.550,�k�k��,6.4,��
2023/03/14,09:30,0.557,0.811,0.488,1.029,0.714,0.319,0.579,0.549,�k�k��,5.9,��
2023/03/14,09:40,0.558,0.811,0.490,1.030,0.717,0.318,0.579,0.550,�k�k��,6.6,��
2023/03/14,09:50,0.559,0.811,0.491,1.029,0.713,0.320,0.577,0.549,�k�k��,7.1,��
2023/03/14,10:00,0.558,0.811,0.491,1.030,0.714,0.318,0.577,0.550,�k�k��,6.8,��
2023/03/14,10:10,0.557,0.809,0.490,1.029,0.715,0.319,0.577,0.553,�k�k��,7.7,��
2023/03/14,10:20,0.558,0.809,0.491,1.031,0.717,0.318,0.577,0.550,�k�k��,7.9,��
2023/03/14,10:30,0.559,0.810,0.492,1.029,0.716,0.318,0.578,0.549,�k�k��,8.2,��
2023/03/14,10:40,0.559,0.810,0.491,1.030,0.715,0.320,0.579,0.549,�k�k��,7.1,��
2023/03/14,10:50,0.558,0.810,0.492,1.032,0.718,0.316,0.578,0.549,�k�k��,7.3,��
2023/03/14,11:00,0.558,0.810,0.493,1.031,0.716,0.318,0.579,0.549,�k�k��,7.4,��
2023/03/14,11:10,0.558,0.810,0.491,1.032,0.717,0.316,0.579,0.550,�k�k��,6.8,��
2023/03/14,11:20,0.558,0.811,0.493,1.030,0.716,0.311,0.579,0.550,�k�k��,6.9,��
2023/03/14,11:30,0.558,0.809,0.494,1.031,0.716,0.315,0.577,0.549,�k�k��,6.6,��
2023/03/14,11:40,0.558,0.812,0.492,1.031,0.717,0.319,0.578,0.550,�k�k��,6.5,��
2023/03/14,11:50,0.559,0.812,0.493,1.031,0.718,0.319,0.578,0.549,�k�k��,5.7,��
2023/03/14,12:00,0.558,0.812,0.492,1.032,0.716,0.318,0.580,0.550,�k�k��,6.7,��
2023/03/14,12:10,0.558,0.813,0.494,1.030,0.717,0.318,0.580,0.550,�k�k��,6.0,��
2023/03/14,12:20,0.559,0.812,0.494,1.033,0.717,0.319,0.580,0.550,�k�k��,6.3,��
2023/03/14,12:30,0.560,0.814,0.493,1.032,0.717,0.321,0.581,0.550,�k�k��,6.2,��
2023/03/14,12:40,0.558,0.814,0.494,1.033,0.717,0.318,0.580,0.551,�k�k��,6.4,��
2023/03/14,12:50,0.559,0.815,0.494,1.031,0.718,0.319,0.581,0.551,�k�k��,6.2,��
2023/03/14,13:00,0.558,0.814,0.494,1.033,0.718,0.319,0.581,0.549,�k�k��,6.7,��
2023/03/14,13:10,0.560,0.812,0.493,1.033,0.719,0.320,0.581,0.551,�k�k��,5.8,��
2023/03/14,13:20,0.559,0.814,0.493,1.034,0.718,0.319,0.580,0.551,�k�k��,6.4,��
2023/03/14,13:30,0.561,0.813,0.496,1.035,0.719,0.318,0.579,0.550,�k�k��,6.3,��
2023/03/14,13:40,0.560,0.814,0.494,1.033,0.719,0.319,0.582,0.550,�k�k��,5.9,��
2023/03/14,13:50,0.561,0.814,0.495,1.033,0.718,0.320,0.581,0.550,�k�k��,5.0,��
2023/03/14,14:00,0.560,0.816,0.496,1.035,0.720,0.319,0.581,0.551,�k�k��,4.8,��
2023/03/14,14:10,0.561,0.817,0.495,1.031,0.718,0.320,0.580,0.551,�k�k��,5.3,��
2023/03/14,14:20,0.562,0.817,0.495,1.035,0.720,0.319,0.580,0.550,�k�k��,5.0,��
2023/03/14,14:30,0.561,0.819,0.494,1.034,0.720,0.321,0.580,0.552,�k�k��,5.1,��
2023/03/14,14:40,0.561,0.818,0.495,1.034,0.721,0.319,0.579,0.550,�k��,4.4,��
2023/03/14,14:50,0.561,0.819,0.495,1.035,0.721,0.319,0.582,0.549,�k�k��,4.7,��
2023/03/14,15:00,0.561,0.820,0.495,1.035,0.721,0.320,0.580,0.550,�k�k��,4.8,��
2023/03/14,15:10,0.560,0.820,0.496,1.035,0.721,0.320,0.581,0.550,�k�k��,4.7,��
2023/03/14,15:20,0.560,0.816,0.495,1.034,0.719,0.320,0.580,0.550,�k�k��,4.3,��
2023/03/14,15:30,0.560,0.819,0.496,1.035,0.721,0.319,0.581,0.550,�k�k��,4.6,��
2023/03/14,15:40,0.561,0.818,0.497,1.035,0.719,0.320,0.581,0.551,�k�k��,5.5,��
2023/03/14,15:50,0.561,0.819,0.496,1.033,0.719,0.319,0.579,0.551,�k�k��,4.6,��
2023/03/14,16:00,0.562,0.820,0.496,1.034,0.720,0.322,0.580,0.550,�k�k��,4.2,��
2023/03/14,16:10,0.561,0.819,0.497,1.034,0.721,0.321,0.579,0.551,�k,3.8,��
2023/03/14,16:20,0.562,0.819,0.494,1.036,0.718,0.320,0.579,0.553,�k,3.6,��
2023/03/14,16:30,0.561,0.817,0.496,1.034,0.719,0.321,0.582,0.554,�k�k��,4.0,��
2023/03/14,16:40,0.562,0.818,0.496,1.035,0.718,0.319,0.583,0.552,�k�k��,4.6,��
2023/03/14,16:50,0.563,0.819,0.496,1.034,0.722,0.319,0.580,0.552,�k,4.0,��
2023/03/14,17:00,0.560,0.819,0.498,1.033,0.721,0.320,0.581,0.552,�k,4.0,��
2023/03/14,17:10,0.562,0.820,0.496,1.033,0.721,0.320,0.581,0.553,�k,3.5,��
2023/03/14,17:20,0.562,0.820,0.498,1.036,0.722,0.318,0.583,0.553,�k,3.1,��
2023/03/14,17:30,0.562,0.820,0.497,1.033,0.722,0.320,0.582,0.552,�k�k��,3.5,��
2023/03/14,17:40,0.561,0.820,0.497,1.035,0.723,0.319,0.583,0.551,�k�k��,2.9,��
2023/03/14,17:50,0.562,0.819,0.495,1.035,0.721,0.319,0.582,0.552,�k��,3.1,��
2023/03/14,18:00,0.562,0.820,0.496,1.034,0.723,0.319,0.581,0.552,�k��,2.8,��
2023/03/14,18:10,0.561,0.818,0.495,1.033,0.724,0.321,0.581,0.551,�k�k��,1.9,��
2023/03/14,18:20,0.560,0.816,0.495,1.034,0.720,0.320,0.582,0.551,�k��,2.3,��
2023/03/14,18:30,0.559,0.818,0.496,1.033,0.721,0.319,0.583,0.553,�k�k��,2.3,��
2023/03/14,18:40,0.561,0.817,0.496,1.033,0.722,0.320,0.581,0.551,���k��,2.2,��
2023/03/14,18:50,0.561,0.818,0.496,1.034,0.724,0.319,0.583,0.552,���k��,0.9,��
2023/03/14,19:00,0.560,0.818,0.495,1.034,0.722,0.319,0.582,0.552,�k��,0.8,��
2023/03/14,19:10,0.561,0.818,0.495,1.033,0.722,0.318,0.581,0.551,���k��,0.9,��
2023/03/14,19:20,0.561,0.818,0.494,1.035,0.721,0.319,0.581,0.550,���k��,0.9,��
2023/03/14,19:30,0.560,0.818,0.495,1.035,0.721,0.318,0.580,0.550,���k��,2.3,��
2023/03/14,19:40,0.560,0.818,0.498,1.035,0.720,0.319,0.581,0.550,��,0.6,��
2023/03/14,19:50,0.560,0.819,0.495,1.035,0.721,0.319,0.581,0.551,��,2.3,��
2023/03/14,20:00,0.559,0.817,0.495,1.037,0.722,0.320,0.579,0.552,���쐼,2.6,��
2023/03/14,20:10,0.560,0.818,0.496,1.031,0.723,0.319,0.579,0.552,���쐼,2.6,��
2023/03/14,20:20,0.560,0.819,0.495,1.032,0.722,0.319,0.580,0.551,���쐼,2.2,��
2023/03/14,20:30,0.560,0.820,0.496,1.036,0.722,0.319,0.579,0.551,��,2.5,��
2023/03/14,20:40,0.558,0.819,0.494,1.037,0.723,0.318,0.581,0.551,��,3.0,��
2023/03/14,20:50,0.561,0.820,0.496,1.035,0.722,0.320,0.581,0.551,��,2.6,��
2023/03/14,21:00,0.559,0.818,0.495,1.034,0.723,0.319,0.581,0.551,��,2.2,��
2023/03/14,21:10,0.560,0.818,0.495,1.036,0.724,0.319,0.580,0.550,���k��,2.3,��
2023/03/14,21:20,0.561,0.820,0.494,1.035,0.721,0.317,0.581,0.551,���k��,2.3,��
2023/03/14,21:30,0.559,0.817,0.495,1.035,0.721,0.318,0.580,0.551,���k��,3.4,��
2023/03/14,21:40,0.558,0.819,0.495,1.034,0.722,0.319,0.580,0.550,���k��,3.2,��
2023/03/14,21:50,0.560,0.821,0.495,1.035,0.723,0.319,0.580,0.551,�k��,2.9,��
2023/03/14,22:00,0.559,0.819,0.497,1.036,0.721,0.320,0.579,0.551,�k��,3.5,��
2023/03/14,22:10,0.560,0.817,0.493,1.034,0.720,0.320,0.580,0.550,�k��,3.5,��
2023/03/14,22:20,0.558,0.817,0.494,1.036,0.723,0.320,0.581,0.551,�k��,4.0,��
2023/03/14,22:30,0.560,0.818,0.495,1.035,0.722,0.319,0.581,0.551,�k�k��,4.3,��
2023/03/14,22:40,0.560,0.817,0.495,1.036,0.723,0.319,0.580,0.549,�k�k��,5.2,��
2023/03/14,22:50,0.560,0.819,0.495,1.036,0.721,0.318,0.581,0.551,�k�k��,6.3,��
2023/03/14,23:00,0.559,0.818,0.496,1.037,0.722,0.320,0.580,0.550,�k�k��,6.1,��
2023/03/14,23:10,0.559,0.818,0.495,1.035,0.721,0.318,0.581,0.551,�k�k��,5.7,��
2023/03/14,23:20,0.560,0.818,0.495,1.037,0.723,0.319,0.580,0.551,�k�k��,6.2,��
2023/03/14,23:30,0.561,0.819,0.492,1.034,0.721,0.319,0.581,0.551,�k�k��,6.1,��
2023/03/14,23:40,0.559,0.818,0.495,1.036,0.721,0.318,0.581,0.551,�k�k��,5.7,��
2023/03/14,23:50,0.558,0.818,0.495,1.035,0.721,0.319,0.581,0.550,�k�k��,5.5,��
